ATLAS 5 CENTAUR DEB, 52971

Orbit data source: Space-Track

ATLAS 5 CENTAUR DEB, 52971 is space debris in HEO originally from a launch on Wed, 17 Oct 2018 UTC launched from the Air Force Eastern Test Range (AFETR). Debris objects in space refer to the collection of defunct objects orbiting the Earth. Examples of debris include non-operational satellites, rocket bodies, and fragments generated from explosions, collisions, or faulty payload assembly.

Loading next visibility...
Identifier
52971, 2018-079GV
Orbit
HEO
Country
Flag of USUS
Related business
Flag of USUnited Launch Alliance/Lockheed Martin (US)
Manufacturer
ULA Decatur
Mission
Spacecraft
Bus & Motor
Unknown
Mass
Unknown
Launch date (UTC)
2018-10-17 (8 years ago)
Launch vehicle
Unknown
Launch site
Air Force Eastern Test Range (AFETR)
Object type
Payload
Rocket body
Debris
Shape & HBR
Unknown shape, 1.1 m
Radar Cross Section
RCS unknown

Expand to show TLE details & history
Last TLE update: 2 days ago

TLE from 2 days ago
0 ATLAS 5 CENTAUR DEB
1 52971U 18079GV  26123.26309535 -.00000126  00000-0  00000-0 0  9996
2 52971  13.0228  41.1366 4768948 312.9014  15.9337  1.82287847 30041
Epoch: 2026-05-03T06:18Z
TLE epoch observation values (Epoch: 2026-05-03T06:18:51.438Z)
Latitude
0.00001°
Longitude
85.18595°
Altitude
10,123.669 km
Speed
5.851 km/s
True Right ascension
02h 44m 16s
True Declination
0° 00' 00"
Sunlit
Object was in daylight at epoch
Visualization orbit readout
Latitude
Unknown
Longitude
Unknown
Altitude
Unknown
Speed
Unknown
Apparent Right ascension
Unknown
Apparent Declination
Unknown
Sunlit
N/A
Visualization observer readout
Local Sidereal Time
18:45:38
Azimuth
Unknown
Elevation
Unknown
Doppler factor
Unknown
Orbital elements
Apogee altitude
35,431.751 km
Perigee altitude
8,430.616 km
Semi-major axis
28,309.32 km
Eccentricity
0.47689
Inclination
13.0228°
RAAN
41.1366°
Arg. of periapsis
312.9014°
True anomaly
47.44094°
Mean anomaly
15.9337°
Eccentric anomaly
29.30961°
Mean motion
0.45567 °/min
Orbital period
790.05 mins
BSTAR
0
Loading maneuver chart data...
Computing Atmospheric mass density...

Documentation

Showing up to 5 results
|